www.pogodaiklimat.ru

Погода и климат >> Архив погоды >> Россия >> Магаданская область >> Ягодное


ПОГОДА в Ягодной

  • Прогноз погоды в Ягодной
  • Монитор погоды в Ягодной

АРХИВ ПОГОДЫ в Ягодной

Время (UTC), дата Ветер
(напр.,м/с)
 
Видим.   Явления Облачность Т
(С)
Тd
(С)
f
(%)
Тe
(С)
Тes
(С)
Комфортность P
(гПа)
Po
(гПа)
Тmin
(С)
Tmax
(С)
R
(мм)
R24
(мм)
S
(см)
15 20.06 штиль 0 20 км слаб. ливневой дождь 10/10 960 м
[Cb cap]
+11.2 +10.9 98 +10 +10 1011.4 950.8
18 20.06 С 1 20 км слаб. ливневой дождь 10/10 960 м
[Cb cap]
+10.9 +10.3 96 +10 +10 1012.6 952.0
21 20.06 СВ 1 50 км {ливн. осадки} 10/10 1000 м
[Cb cap]
+11.9 +10.7 92 +12 +12 1013.1 952.5 +10.8 8
00 21.06 штиль 0 50 км {ливн. осадки} 9/5 1000 м
[Cb cap Ac trans]
+14.8 +9.6 71 +15 +16 1013.2 953.3
03 21.06 ЮВ 1 50 км 9/5 1000 м
[Cb cap Ac trans Ci fib]
+16.0 +8.5 61 +17 +18 1012.9 953.3
06 21.06 С 1 50 км в посл. час ливневой дождь 10/6 1000 м
[Cb cap Ac trans]
+14.3 +10.9 80 +15 +15 1014.7 954.7
09 21.06 С 1 50 км {ливн. осадки} 10/5 1000 м
[Cb cap Ac lent Ci fib]
+13.2 +9.6 79 +13 +13 1015.0 954.7 +16.5 0.6
12 21.06 В 1 20 км слаб. ливневой дождь 10/10 1000 м
[Cb cap]
+11.0 +10.4 96 +11 +11 1016.8 956.0
15 21.06 С 1 20 км слаб. ливневой дождь 10/10 960 м
[Cb cap]
+9.6 +9.3 98 +9 +9 1016.1 954.9
18 21.06 штиль 0 н/о н/о +9.1 +9.0 99 +8 +8 1017.3 956.0
21 21.06 штиль 0 50 км 9/3 1000 м
[Cu med, cong Ac trans]
+11.7 +10.1 90 +11 +13 1016.3 955.5 +9.0 3
00 22.06 З 1 50 км 9/8 1000 м
[Cb cap Ac trans]
+13.4 +8.0 70 +14 +15 1016.4 956.0
03 22.06 Ю 1 50 км в посл. час ливневой дождь 9 баллов +17.5 +6.7 49 +19 +20 1015.5 956.0
06 22.06 Ю 1 50 км {ливн. осадки} 9/5 1000 м
[Cb cap Ac trans]
+18.0 +5.2 43 +19 +20 1014.0 954.7
09 22.06 С 1 50 км 9/9 1000 м
[Sc]
+16.2 +9.1 63 +17 +17 1014.4 954.7 +18.8 0.0
12 22.06 штиль 0 50 км 10/8 1000 м
[Sc Ac trans]
+11.9 +8.2 78 +11 +11 1015.3 954.7
15 22.06 штиль 0 50 км 10/4 1000 м
[Sc Ac trans]
+8.5 +7.1 91 +8 +8 1016.1 954.7
18 22.06 СЗ 1 50 км 8/4 1000 м
[Sc Ac trans Ci fib]
+7.1 +6.4 95 +6 +6 1016.4 954.7
21 22.06 З 1 50 км 8/0
[Ac trans Ci fib]
+12.7 +8.9 78 +13 +17 1014.4 953.9 +6.8
00 23.06 Ю 1 50 км 9/5 1000 м
[Cb cap Ac trans Ci fib]
+15.6 +9.5 67 +16 +18 1014.5 954.7
03 23.06 В 1 50 км {ливн. осадки} 9/6 1000 м
[Cb cap Ac trans]
+16.2 +9.4 64 +17 +19 1012.9 953.3
06 23.06 В 2 50 км {ливн. осадки} 9/5 1000 м
[Cb cap Ac trans]
+19.5 +6.6 43 +21 +21 комфорт 1012.2 953.3
09 23.06 штиль 0 50 км 8/3 1000 м
[Sc Ac trans]
+14.7 +8.9 68 +14 +15 1013.2 953.3 +20.3 2
12 23.06 З 1 50 км 8/4 1000 м
[Sc Ac trans Ci fib]
+11.0 +8.2 83 +11 +11 1015.5 954.7
15 23.06 штиль 0 50 км 8/4 1000 м
[Sc Ac trans Ci fib]
+7.1 +6.7 97 +6 +6 1016.4 954.7
18 23.06 штиль 0 50 км 6/3 1000 м
[Sc Ac trans Ci fib]
+7.2 +7.1 99 +6 +6 1017.7 956.0
21 23.06 ЮВ 2 50 км 4/0
[Ci fib]
+13.0 +8.8 76 +12 +17 1015.5 955.0 +6.2
00 24.06 ЮВ 2 50 км 5/5 1000 м
[Cu med, cong]
+14.9 +6.5 57 +15 +20 1016.1 956.0
03 24.06 В 2 50 км 7 баллов +18.3 +4.1 39 +19 +23 1014.0 954.7
06 24.06 ЮВ 3 50 км 6 баллов +19.5 +2.8 33 +20 +22 1013.8 954.7
09 24.06 В 2 50 км 9/3 1000 м
[Sc Ac trans Ci fib]
+17.3 +3.6 40 +18 +18 1015.6 956.0 +19.5
12 24.06 штиль 0 50 км 8/4 1000 м
[Sc Ac trans Ci fib]
+12.6 +4.1 56 +12 +12 1016.6 956.0
15 24.06 С 1 50 км 5/0
[Ac trans Ci fib]
+7.6 +2.9 72 +7 +7 1019.1 957.3
18 24.06 СЗ 1 50 км 6/0
[Ac trans Ci fib]
+7.2 +3.4 77 +6 +7 1019.2 957.3
21 24.06 штиль 0 50 км 10/6 1000 м
[Sc Ac trans]
+9.5 +5.4 76 +9 +10 1018.7 957.2 +3.6
00 25.06 В 2 50 км 8/5 1000 м
[Cu med, cong]
+14.5 +3.3 47 +14 +18 1017.6 957.3
03 25.06 В 2 50 км 6/4 1000 м
[Cu med, cong]
+17.7 +1.6 34 +18 +23 1016.9 957.3
06 25.06 В 2 50 км 6/4 1000 м
[Cu med, cong Ci fib]
+18.6 +1.6 32 +19 +22 1015.3 956.0
09 25.06 СВ 2 50 км 8/3 1000 м
[Sc Ac trans Ci fib]
+16.5 +1.8 37 +17 +17 1015.8 956.0 +19.0
12 25.06 С 1 50 км 8/3 1000 м
[Sc Ac trans]
+12.0 +5.2 63 +12 +12 1016.7 956.0
15 25.06 СЗ 2 50 км 9/4 1000 м
[Sc Ac trans]
+8.8 +5.9 82 +7 +7 1017.4 956.0
18 25.06 З 1 50 км 10/8 1000 м
[Cb cap Ac trans]
+8.2 +7.3 94 +7 +7 1017.5 956.0
21 25.06 З 2 50 км {ливн. осадки} 10/5 1000 м
[Cb cap Ac trans]
+10.4 +8.3 87 +9 +10 1015.4 954.4 +8.0 0.6
00 26.06 С 1 50 км {ливн. осадки} 8/5 1000 м
[Cb cap Ac trans Ci fib]
+16.9 +7.3 53 +18 +22 1014.2 954.7
03 26.06 СВ 2 50 км 8/5 1000 м
[Cb cap Ac trans Ci fib]
+17.6 +5.8 46 +18 +22 1012.6 953.3
06 26.06 В 2 50 км 5/4 1000 м
[Cb calv Ci fib]
+21.3 +3.0 30 +21 +25 комфорт 1009.1 950.7
09 26.06 штиль 0 50 км 6/3 1000 м
[Sc Ci fib]
+18.6 +5.8 43 +19 +20 1009.7 950.7 +21.6
12 26.06 С 2 50 км 6 баллов +12.9 +7.8 71 +12 +12 1010.8 950.7
15 26.06 СЗ 2 50 км 8/4 1000 м
[Sc Ac trans Ci fib]
+6.2 +5.2 93 +4 +4 1012.4 950.7
18 26.06 З 1 50 км 9 баллов +9.8 +7.2 84 +9 +9 1008.6 948.0
21 26.06 З 2
{10}
50 км {ливн. осадки} 10/5 1000 м
[Cb cap Ac trans]
+12.7 +9.6 81 +12 +13 1006.0 945.8 +6.1 0.3
00 27.06 С 2 50 км 5 баллов +20.5 +7.1 42 +22 +28 комфорт 1003.5 945.3
03 27.06 С 3 50 км 9 баллов +22.6 +1.0 24 +22 +23 комфорт 1000.4 942.7
06 27.06 СВ 3 50 км 9 баллов +19.3 -1.2 25 +20 +20 1001.1 942.7
09 27.06 СВ 3 50 км 9 баллов +15.9 +3.7 44 +16 +16 1003.1 944.0 +23.1

 

Местоположение метеостанции Ягодное (Магаданская область, Россия): широта 62.51 долгота 149.60 высота над уровнем моря 518 м.

В архиве по умолчанию представлена погода в Ягодной за последнюю неделю. Архивные данные за месяц целиком и за предыдущие месяцы, начиная с января 2011 года, Вы можете получить, выбрав интересующий диапазон дат из раскрывающегося списка и нажав кнопку "Ввод!".


*Определитесь, кто Вы:
робот инопланетянин человек

Внимание! Время в таблицах - всемирное. Для получения местного времени необходимо прибавить поправку, которая равна 11 ч.

Смотрите также архив погоды в соседних городах и на ближайших метеорологических станциях:

Погода на Озере Джека Лондона (Магаданская область, Россия) (48 км)
Погода в Совхозе Эльген (Магаданская область, Россия) (60 км)
Погода в Усть-Бохапче (Магаданская область, Россия) (69 км)
Погода в Сусумане (Магаданская область, Россия) (82 км)
Погода в Колымской (Магаданская область, Россия) (127 км)
Погода в Среднекане (Магаданская область, Россия) (139 км)
Погода в Сеймчане (Магаданская область, Россия) (150 км)
Погода в Усть-Омчуге (Магаданская область, Россия) (155 км)
Погода в Талой (Магаданская область, Россия) (209 км)
Погода в Мадауне (Магаданская область, Россия) (220 км)

Пояснения к столбцам:

Ветер - указаны скорость ветра в м/с - средняя за 10 мин, порывы в срок и между сроками (в фигурных скобках) и направление, откуда дует ветер: С - северный, СВ - северо-восточный, В - восточный, ЮВ - юго-восточный, Ю - южный, ЮЗ - юго-западный, З - западный, СЗ - северо-западный.
Видимость - горизонтальная дальность видимости в метрах или километрах. При видимости от 1 до 10 км при отсутствии осадков обычно наблюдается дымка, при ухудшении видимости до 1 км и менее - туман. В сухую погоду видимость может ухудшаться дымом, пылью или мглою.
Явления - указаны атмосферные явления, наблюдавшиеся в срок или в последний час перед сроком; фигурными скобками обозначены явления, наблюдавшиеся между сроками (за 1-3 часа до срока); квадратными скобками обозначены град или гололедные отложения с указанием их диаметра в мм.
Облачность - указаны через наклонную черту общая и нижняя облачность в баллах и высота нижней границы облаков в метрах; квадратными скобками обозначены формы облаков: Ci - перистые, Cs - перисто-слоистые, Cc - перисто-кучевые, Ac - высококучевые, As - высокослоистые, Sc - слоисто-кучевые, Ns - слоисто-дождевые, Cu - кучевые, Cb - кучево-дождевые. Подробнее классификацию облаков см. в Атласе облаков (PDF).
T - Температура воздуха - температура, измеренная на высоте 2 м над землей.
Td - Температура точки росы - температура, при понижении до которой содержащийся в воздухе водяной пар достигнет насыщения.
f - Относительная влажность воздуха - влажноcть воздуха, измеренная на высоте 2 м над землей.
Te - Эффективная температура - температура, которую ощущает одетый по сезону человек в тени. Характеристика душности погоды. При расчете учитывается влияние влажности воздуха и скорости ветра на теплоощущения человека.
Tes - Эффективная температура на солнце - температура, которую ощущает человек, с поправкой на солнечный нагрев. Характеристика знойности погоды. Зависит от высоты солнца над горизонтом, облачности и скорости ветра. Ночью, в пасмурную погоду, а также при ветре 12 м/с и более поправка равна нулю.
P - Атмосферное давление - приведенное к уровню моря атмосферное давление.
Po - Атмосферное давление - измеренное на уровне метеостанции атмосферное давление.
Tmin - Минимальная температура - минимум температуры воздуха на высоте 2 м над землей.
Tmax - Максимальная температура - максимум температуры воздуха на высоте 2 м над землей.
R - Количество осадков - Количество выпавших осадков за период времени, мм. При наведении курсора мыши на число - период времени, за который выпало указанное количество осадков.
R24 - Количество осадков - Количество выпавших осадков за 24 часа, мм.
S - Снежный покров - Высота снежного покрова, см. При наведении курсора мыши на число - состояние снежного покрова и степень покрытия местности в баллах.